Location: Big Prairie
(40.6673°N, 82.0952°W)
Time: 16:37:28
(UTC+00:00)

Meteor 1-26 Rocket - Pass Details

Date: 01 July 2022
Orbit: 811 x 924 km, 81.3° (Epoch: 18 August)

Event Time Altitude Azimuth Distance (km) Brightness Sun altitude
Rises 06:05:42 0° 359° (N) 3,471 8.7 -25.8°
Reaches altitude 10° 06:08:22 10° 9° (N) 2,547 7.7 -25.7°
Maximum altitude 06:13:37 34° 73° (ENE) 1,432 5.6 -25.5°
Enters shadow 06:16:20 23° 119° (ESE) 1,812 5.7 -25.4°
